Tracking 32139 objects as of 15-Nov-2025
HD Live streaming from Space Station
objects crossing your sky now

STARLINK-35148

Track STARLINK-35148 now!
10-day predictions
STARLINK-35148 is classified as:


NORAD ID: 65844
Int'l Code: 2025-221X
Perigee: 481.3 km
Apogee: 483.5 km
Inclination: 53.2 °
Period: 94.1 minutes
Semi major axis: 6853 km
RCS: Unknown
Launch date: September 29, 2025
Source: United States (US)
Launch site: AIR FORCE WESTERN TEST RANGE (AFWTR)
Your satellite tracking list
Your tracking list is empty




NASA's NSSDC Master Catalog

Two Line Element Set (TLE):
1 65844U 25221X   25318.55716108  .00044779  00000-0  15153-2 0  9999
2 65844  53.1600 263.2936 0001576  80.7065 279.4114 15.30192415  7107
Source of the keplerian elements: AFSPC